Regional Weather Roundup
Issued by NWS

Home | Current Version | Previous Version | Text Only | Print | Product List | Glossary Off
Versions: 1 2 3 4 5 6 7 8 9 10 11 12 13 14 15 16 17 18 19 20 21 22 23 24 25 26 27 28 29 30 31 32 33 34 35 36 37 38 39 40 41 42 43 44 45 46 47 48 49 50

000
ASUS45 KTFX 300104
RWRMT
MONTANA HOURLY WEATHER ROUNDUP
NATIONAL WEATHER SERVICE GREAT FALLS MT
704 PM MDT FRI AUG 29 2014

NOTE: "FAIR" INDICATES FEW OR NO CLOUDS BELOW 12000 FEET WITH NO
SIGNIFICANT WEATHER AND/OR OBSTRUCTIONS TO VISIBILITY.

* THESE STATIONS ARE NOT UNDER NWS QUALITY CONTROL. THEY DO NOT
   REPORT WEATHER SUCH AS PRECIPITATION OR FOG.

MTZ001>007-043-300200-
WEST OF THE DIVIDE
CITY           SKY/WX    TMP DP  RH WIND       PRES   REMARKS
KALISPELL      MOCLDY    79  45  30 S12       29.77F
MISSOULA       CLEAR     84  30  14 W22       29.82F
BUTTE          CLEAR     79  34  20 W8        29.95F
MULLAN PASS    MOCLDY    63  30  29 VRB7      30.00F
* LINCOLN      N/A       80  38  22 W4G10      N/A
* LOOKOUT PASS N/A       69  34  28 SE6G13     N/A
* POLSON       N/A       80  34  19 SW4G12     N/A
* RONAN APT    PTCLDY    84  36  18 SW14G22    N/A
* SEELEY LAKE  N/A       81  32  17 SW6G17     N/A
* THOMP F APT  MOCLDY    71  40  33 S10G19     N/A
$$

MTZ008-052>055-300200-
SOUTHWEST MONTANA
CITY           SKY/WX    TMP DP  RH WIND       PRES   REMARKS
BOZEMAN        PTCLDY    81  48  32 NE7       29.89F
DILLON         MOCLDY    82  36  19 NE3       29.91F
W YELLOWSTONE  MOCLDY    72  39  30 SW9       30.09F
* THREE FORKS  PTCLDY    82  54  38 N/A        N/A
* BOULDER HILL N/A       71  35  27 VRB3       N/A
* MONIDA PASS  N/A       62  43  50 S12        N/A
* RAYNOLDS PAS N/A       72  59  64 SW11G20    N/A
* WHITEHALL    N/A       86  39  19 W7G13      N/A
* WISE RIVER   N/A       79  34  20 W11G21     N/A
$$

MTZ009>010-012-014-046-048-049-054-300200-
EAST SLOPES AND CENTRAL MONTANA
CITY           SKY/WX    TMP DP  RH WIND       PRES   REMARKS
CUT BANK       CLEAR     77  43  30 SW12      29.83F
GREAT FALLS    CLEAR     79  39  24 S6        29.82F
HELENA         PTCLDY    81  45  28 E7        29.84F
MALMSTROM AFB  CLEAR     81  37  21 S5        29.83F
* CONRAD       CLEAR     81  43  26 NE6        N/A
* EAST GLACIER N/A       71  41  34 W12G20     N/A
* MONARCH      N/A       74  25  16 W4         N/A
* PENDROY      N/A       79  33  19 VRB5       N/A
* ROGERS PASS  N/A       70  33  26 SE5G14     N/A
* SAINT MARY   N/A       73  44  35 SW6G14     N/A
* SWEET GRASS  N/A       77  43  30 S11G16     N/A
$$

MTZ011-013-016-021-035-040-045-047-050-051-300200-
NORTH CENTRAL MONTANA
CITY           SKY/WX    TMP DP  RH WIND       PRES   REMARKS
HAVRE          CLEAR     79  45  30 S8        29.82F
LEWISTOWN      MOCLDY    75  48  39 E8        29.91F
* CHESTER      N/A       77  41  28 SE5G12     N/A
* DENTON       N/A       79  43  28 SE5G11     N/A
* GEYSER       N/A       81  36  20 E4         N/A
* JUDITH GAP   N/A       72  45  38 SE17G22    N/A
* LOMA         N/A       78  51  39 E16        N/A
$$

MTZ017>020-022>027-061-062-300200-
NORTHEAST MONTANA
CITY           SKY/WX    TMP DP  RH WIND       PRES   REMARKS
GLASGOW        PTCLDY    70  52  53 S10       29.91F
GLENDIVE       CLEAR     66  52  61 E5        29.97F
JORDAN         PTCLDY    72  52  49 SE8       29.92F
SIDNEY         CLEAR     70  54  57 NE3       29.97S
WOLF POINT     CLEAR     72  50  46 SE5       29.93F
* BEAVER HILL  N/A       67  50  55 NE2        N/A
* CIRCLE       N/A       71  51  49 E2G7       N/A
* LINDSAY DVD  N/A       67  48  51 SE6        N/A
* NAVAJO       N/A       68  47  47 SE4        N/A
$$

MTZ028>042-056>058-300200-
SOUTHCENTRAL AND SOUTHEAST MONTANA
CITY           SKY/WX    TMP DP  RH WIND       PRES   REMARKS
BAKER          CLEAR     70  52  53 NE6       30.00S
BILLINGS       FAIR      75  54  48 E12       29.93F
LIVINGSTON     PTCLDY    82  36  19 E6        29.90F
MILES CITY     PTCLDY    72  50  46 NE8       29.95F
* LAUREL APT   CLEAR     75  54  48 NE8        N/A
* ROUNDUP APT  CLEAR     75  48  39 E7         N/A
* ALZADA       N/A       70  51  51 NE2        N/A
* HYSHAM       N/A       72  45  38 E7         N/A
* LAME DEER    N/A       67  50  55 E6         N/A
* REED POINT   N/A       78  50  38 E7         N/A
* ROSCOE HILL  N/A       72  40  31 E7         N/A
$$

REGIONAL REPORTS...DAKOTAS
CITY           SKY/WX    TMP DP  RH WIND       PRES   REMARKS
WILLISTON      CLEAR     70  48  46 E6        29.96S
DICKINSON      CLEAR     64  54  70 NE6       29.97S
BEACH          N/A       64  54  70 NE8       29.99S
CROSBY         CLEAR     66  48  52 NE5       29.97S
TIOGA          CLEAR     66  46  49 NE5       30.00S
WATFORD CITY   MOCLDY    66  50  56 E6        29.95S
BISMARCK       MOCLDY    68  55  63 N7        29.94S
GRAND FORKS    CLOUDY    63  54  73 N15G24    29.85R
FARGO          CLOUDY    66  63  90 N17       29.80R
BUFFALO SD     CLEAR     68  52  57 NE7       29.93S
RAPID CITY     FAIR      72  54  53 NE13      29.98S
$$

REGIONAL REPORTS...WYOMING/IDAHO/WASHINGTON
CITY           SKY/WX    TMP DP  RH WIND       PRES   REMARKS
GILLETTE       CLEAR     72  50  46 E9        30.01F
SHERIDAN       CLEAR     75  52  45 VRB3      29.97F
CODY           PTCLDY    77  46  33 SE7       29.98S
YELLOWSTONE LA PTCLDY    64  36  35 VRB5      30.21S
SALMON         PTCLDY    79  57  47 SW3       29.81F
MULLAN PASS    MOCLDY    63  30  29 VRB7      30.00S
SAND POINT     CLOUDY    77  41  28 SW7       29.78F
SPOKANE        CLOUDY    77  41  28 W18       29.83S

$$




USA.gov is the U.S. government's official web portal to all federal, state and local government web resources and services.